| time (UTC) | temp F | wind direction | speed MPH | gust MPH | rain 1hr in | rain 24hr in | rain mn in | humidity % | barometer mb |
| 20260506194535 | 57 | 272 | 2.0 | 0.0 | 0.00 | 0.00 | 0.00 | 85 | 1010.0 |
| 20260506193041 | 57 | 300 | 2.0 | 0.0 | 0.00 | 0.00 | 0.00 | 84 | 1010.2 |
| 20260506191533 | 57 | 263 | 2.0 | 0.0 | 0.00 | 0.00 | 0.00 | 85 | 1010.2 |
| 20260506190034 | 57 | 317 | 1.0 | 0.0 | 0.00 | 0.00 | 0.00 | 84 | 1010.7 |
| 20260506184537 | 57 | 55 | 2.0 | 0.0 | 0.00 | 0.00 | 0.00 | 84 | 1010.4 |
| 20260506183032 | 57 | 306 | 1.0 | 0.0 | 0.00 | 0.00 | 0.00 | 85 | 1009.9 |
| 20260506181539 | 57 | 20 | 1.0 | 0.0 | 0.00 | 0.00 | 0.00 | 85 | 1010.2 |
| 20260506180033 | 57 | 65 | 2.0 | 0.0 | 0.00 | 0.00 | 0.00 | 84 | 1010.3 |
| 20260506174535 | 58 | 19 | 3.0 | 0.0 | 0.00 | 0.00 | 0.00 | 85 | 1008.5 |
| 20260506173031 | 57 | 341 | 3.0 | 0.0 | 0.00 | 0.00 | 0.00 | 85 | 1008.3 |
| 20260506171533 | 57 | 34 | 3.0 | 0.0 | 0.00 | 0.00 | 0.00 | 85 | 1009.4 |
| 20260506170031 | 57 | 50 | 3.0 | 0.0 | 0.00 | 0.00 | 0.00 | 85 | 1009.5 |
| 20260506164544 | 57 | 335 | 2.0 | 0.0 | 0.00 | 0.00 | 0.00 | 86 | 1010.6 |
| 20260506163028 | 57 | 65 | 3.0 | 0.0 | 0.00 | 0.00 | 0.00 | 87 | 1009.6 |
| 20260506161527 | 55 | 348 | 3.0 | 0.0 | 0.00 | 0.00 | 0.00 | 88 | 1009.3 |
| 20260506160033 | 55 | 26 | 3.0 | 0.0 | 0.00 | 0.00 | 0.00 | 88 | 1009.6 |
| 20260506154526 | 54 | 29 | 2.0 | 0.0 | 0.00 | 0.00 | 0.00 | 88 | 1010.2 |
| 20260506153024 | 54 | 32 | 2.0 | 0.0 | 0.00 | 0.00 | 0.00 | 87 | 1010.0 |
| 20260506151522 | 55 | 321 | 2.0 | 0.0 | 0.00 | 0.00 | 0.00 | 86 | 1010.6 |
| 20260506150021 | 55 | 5 | 2.0 | 0.0 | 0.00 | 0.00 | 0.00 | 85 | 1010.9 |
| 20260506144525 | 55 | 257 | 2.0 | 0.0 | 0.00 | 0.00 | 0.00 | 84 | 1010.6 |
| 20260506143021 | 55 | 311 | 2.0 | 0.0 | 0.00 | 0.00 | 0.00 | 83 | 1010.2 |
| 20260506141527 | 56 | 317 | 2.0 | 0.0 | 0.00 | 0.00 | 0.00 | 83 | 1009.3 |
| 20260506140016 | 56 | 297 | 3.0 | 0.0 | 0.00 | 0.00 | 0.00 | 82 | 1009.3 |
| 20260506134515 | 56 | 10 | 2.0 | 0.0 | 0.00 | 0.00 | 0.00 | 82 | 1009.2 |
| 20260506133015 | 56 | 347 | 3.0 | 0.0 | 0.00 | 0.00 | 0.00 | 82 | 1008.8 |
| 20260506131513 | 56 | 328 | 3.0 | 0.0 | 0.00 | 0.00 | 0.00 | 82 | 1008.5 |
| 20260506130013 | 56 | 13 | 2.0 | 0.0 | 0.00 | 0.00 | 0.00 | 81 | 1008.3 |
| 20260506124512 | 56 | 360 | 3.0 | 0.0 | 0.00 | 0.00 | 0.00 | 82 | 1008.3 |
| 20260506123014 | 56 | 351 | 3.0 | 0.0 | 0.00 | 0.00 | 0.00 | 82 | 1007.9 |
| 20260506121513 | 56 | 31 | 3.0 | 0.0 | 0.00 | 0.00 | 0.00 | 82 | 1007.8 |
| 20260506120015 | 57 | 320 | 1.0 | 0.0 | 0.00 | 0.00 | 0.00 | 84 | 1007.8 |
| 20260506114508 | 57 | 21 | 2.0 | 0.0 | 0.00 | 0.00 | 0.00 | 84 | 1007.5 |
| 20260506113006 | 57 | 283 | 2.0 | 0.0 | 0.00 | 0.00 | 0.00 | 84 | 1007.2 |
| 20260506111504 | 57 | 5 | 2.0 | 0.0 | 0.00 | 0.00 | 0.00 | 84 | 1006.8 |
| 20260506110005 | 57 | 18 | 3.0 | 0.0 | 0.00 | 0.00 | 0.00 | 84 | 1006.7 |
| 20260506104502 | 57 | 27 | 2.0 | 0.0 | 0.00 | 0.00 | 0.00 | 86 | 1006.6 |
| 20260506103005 | 57 | 5 | 1.0 | 0.0 | 0.00 | 0.00 | 0.00 | 87 | 1006.2 |
| 20260506101600 | 57 | 355 | 1.0 | 0.0 | 0.00 | 0.00 | 0.00 | 88 | 1006.0 |
| 20260506100113 | 57 | 15 | 1.0 | 0.0 | 0.00 | 0.00 | 0.00 | 88 | 1005.9 |
| 20260506094603 | 57 | 25 | 1.0 | 0.0 | 0.00 | 0.00 | 0.00 | 88 | 1005.6 |
| 20260506093058 | 58 | 277 | 1.0 | 0.0 | 0.00 | 0.00 | 0.00 | 88 | 1005.6 |
| 20260506091553 | 59 | 307 | 1.0 | 0.0 | 0.00 | 0.00 | 0.00 | 86 | 1005.6 |
| 20260506090051 | 60 | 327 | 1.0 | 0.0 | 0.00 | 0.00 | 0.00 | 84 | 1005.6 |
| 20260506084616 | 61 | 319 | 1.0 | 0.0 | 0.00 | 0.00 | 0.00 | 82 | 1005.4 |
| 20260506083046 | 61 | 337 | 2.0 | 0.0 | 0.00 | 0.00 | 0.00 | 82 | 1005.1 |
| 20260506081552 | 62 | 13 | 1.0 | 0.0 | 0.00 | 0.00 | 0.00 | 82 | 1004.9 |
| 20260506073040 | 63 | 10 | 1.0 | 0.0 | 0.00 | 0.00 | 0.00 | 82 | 1005.0 |
| 20260506071538 | 63 | 28 | 2.0 | 0.0 | 0.00 | 0.00 | 0.00 | 82 | 1005.1 |
| 20260506061531 | 65 | 20 | 3.0 | 0.0 | 0.00 | 0.00 | 0.00 | 80 | 1004.9 |
| 20260506044520 | 69 | 31 | 2.0 | 0.0 | 0.00 | 0.00 | 0.00 | 77 | 1004.4 |
| 20260506043017 | 70 | 303 | 2.0 | 0.0 | 0.00 | 0.00 | 0.00 | 77 | 1004.6 |
| 20260506041515 | 70 | 24 | 1.0 | 0.0 | 0.00 | 0.00 | 0.00 | 75 | 1004.4 |
| 20260506040015 | 71 | 15 | 1.0 | 0.0 | 0.00 | 0.00 | 0.00 | 74 | 1004.4 |
| 20260506034514 | 72 | 24 | 2.0 | 0.0 | 0.00 | 0.00 | 0.00 | 74 | 1003.8 |
| 20260506033014 | 72 | 11 | 1.0 | 0.0 | 0.00 | 0.00 | 0.00 | 73 | 1003.6 |
| 20260506031513 | 73 | 21 | 2.0 | 0.0 | 0.00 | 0.00 | 0.00 | 72 | 1003.5 |
| 20260506030014 | 73 | 319 | 2.0 | 0.0 | 0.00 | 0.00 | 0.00 | 72 | 1003.4 |
| 20260506024511 | 75 | 59 | 1.0 | 0.0 | 0.00 | 0.00 | 0.00 | 71 | 1002.9 |
| 20260506023011 | 76 | 360 | 2.0 | 0.0 | 0.00 | 0.00 | 0.00 | 71 | 1002.4 |
| 20260506021510 | 78 | 180 | 0.0 | 0.0 | 0.00 | 0.00 | 0.00 | 82 | 1001.9 |
| 20260506020010 | 78 | 180 | 1.0 | 0.0 | 0.00 | 0.00 | 0.00 | 82 | 1001.6 |
| 20260506014509 | 78 | 189 | 1.0 | 0.0 | 0.00 | 0.00 | 0.00 | 82 | 1001.6 |
| 20260506013013 | 78 | 187 | 1.0 | 0.0 | 0.00 | 0.00 | 0.00 | 81 | 1001.2 |
| 20260506011509 | 79 | 186 | 1.0 | 0.0 | 0.00 | 0.00 | 0.00 | 81 | 1001.3 |
| 20260506010013 | 79 | 166 | 4.0 | 0.0 | 0.00 | 0.00 | 0.00 | 81 | 1000.6 |
| 20260506004511 | 79 | 128 | 5.0 | 0.0 | 0.00 | 0.00 | 0.00 | 80 | 1000.6 |
| 20260506003008 | 80 | 127 | 5.0 | 0.0 | 0.00 | 0.00 | 0.00 | 80 | 1000.6 |
| 20260506001507 | 80 | 112 | 5.0 | 0.0 | 0.00 | 0.00 | 0.00 | 79 | 1000.5 |
| 20260506000006 | 80 | 135 | 5.0 | 0.0 | 0.00 | 0.00 | 0.00 | 79 | 1000.4 |
| 20260505234506 | 81 | 159 | 5.0 | 0.0 | 0.00 | 0.00 | 0.00 | 78 | 1000.5 |
| 20260505233006 | 81 | 145 | 6.0 | 0.0 | 0.00 | 0.00 | 0.00 | 78 | 1000.3 |
| 20260505231504 | 82 | 121 | 6.0 | 0.0 | 0.00 | 0.00 | 0.00 | 77 | 1000.1 |
| 20260505230010 | 83 | 149 | 5.0 | 0.0 | 0.00 | 0.00 | 0.00 | 75 | 1000.0 |
| 20260505224505 | 84 | 121 | 5.0 | 0.0 | 0.00 | 0.00 | 0.00 | 74 | 1000.0 |
| 20260505223005 | 85 | 169 | 6.0 | 0.0 | 0.00 | 0.00 | 0.00 | 73 | 999.8 |
| 20260505221503 | 85 | 138 | 5.0 | 0.0 | 0.00 | 0.00 | 0.00 | 71 | 999.8 |
| 20260505220002 | 86 | 128 | 4.0 | 0.0 | 0.00 | 0.00 | 0.00 | 71 | 999.8 |
| 20260505214502 | 86 | 190 | 5.0 | 0.0 | 0.00 | 0.00 | 0.00 | 70 | 999.7 |
| 20260505213002 | 86 | 190 | 6.0 | 0.0 | 0.00 | 0.00 | 0.00 | 68 | 1000.0 |
| 20260505211502 | 86 | 194 | 6.0 | 0.0 | 0.00 | 0.00 | 0.00 | 69 | 1000.0 |
| 20260505210000 | 86 | 206 | 6.0 | 0.0 | 0.00 | 0.00 | 0.00 | 68 | 1000.2 |
| 20260505204600 | 86 | 190 | 7.0 | 0.0 | 0.00 | 0.00 | 0.00 | 67 | 1000.3 |
| 20260505203120 | 86 | 225 | 6.0 | 0.0 | 0.00 | 0.00 | 0.00 | 68 | 1000.6 |
| 20260505201602 | 85 | 214 | 6.0 | 0.0 | 0.00 | 0.00 | 0.00 | 72 | 1000.6 |
| 20260505200055 | 84 | 195 | 6.0 | 0.0 | 0.00 | 0.00 | 0.00 | 73 | 1000.7 |